| time (UTC) | temp F | wind direction | speed MPH | gust MPH | rain 1hr in | rain 24hr in | rain mn in | humidity % | barometer mb |
| 20260505022557 | 64 | 5 | 0.0 | 0.0 | 0.00 | 0.00 | 0.00 | 83 | 1016.5 |
| 20260505022502 | 64 | 5 | 0.0 | 0.0 | 0.00 | 0.00 | 0.00 | 83 | 1016.5 |
| 20260505022056 | 64 | 6 | 0.0 | 0.0 | 0.00 | 0.00 | 0.00 | 82 | 1016.6 |
| 20260505021556 | 64 | 5 | 0.0 | 0.0 | 0.00 | 0.00 | 0.00 | 82 | 1016.7 |
| 20260505021058 | 64 | 5 | 0.0 | 0.0 | 0.00 | 0.00 | 0.00 | 82 | 1016.6 |
| 20260505020555 | 64 | 6 | 0.0 | 0.0 | 0.00 | 0.00 | 0.00 | 81 | 1016.6 |
| 20260505015553 | 65 | 5 | 0.0 | 1.0 | 0.00 | 0.00 | 0.00 | 79 | 1016.7 |
| 20260505015502 | 65 | 5 | 0.0 | 1.0 | 0.00 | 0.00 | 0.00 | 80 | 1016.7 |
| 20260505015056 | 65 | 5 | 0.0 | 1.0 | 0.00 | 0.00 | 0.00 | 79 | 1016.7 |
| 20260505014555 | 66 | 5 | 0.0 | 0.0 | 0.00 | 0.00 | 0.00 | 79 | 1016.6 |
| 20260505014052 | 66 | 5 | 0.0 | 1.0 | 0.00 | 0.00 | 0.00 | 78 | 1016.8 |
| 20260505013551 | 66 | 5 | 0.0 | 1.0 | 0.00 | 0.00 | 0.00 | 78 | 1016.7 |
| 20260505013153 | 66 | 157 | 0.0 | 0.0 | 0.00 | 0.00 | 0.00 | 78 | 1016.7 |
| 20260505012549 | 67 | 151 | 0.0 | 1.0 | 0.00 | 0.00 | 0.00 | 77 | 1016.6 |
| 20260505012051 | 67 | 151 | 0.0 | 1.0 | 0.00 | 0.00 | 0.00 | 77 | 1016.7 |
| 20260505011553 | 67 | 139 | 0.0 | 1.0 | 0.00 | 0.00 | 0.00 | 76 | 1016.7 |
| 20260505011046 | 67 | 139 | 0.0 | 2.0 | 0.00 | 0.00 | 0.00 | 76 | 1016.7 |
| 20260505010544 | 68 | 223 | 0.0 | 2.0 | 0.00 | 0.00 | 0.00 | 76 | 1016.6 |
| 20260505010058 | 68 | 340 | 0.0 | 1.0 | 0.00 | 0.00 | 0.00 | 75 | 1016.4 |
| 20260505005043 | 68 | 285 | 0.0 | 1.0 | 0.00 | 0.00 | 0.00 | 74 | 1016.5 |
| 20260505004541 | 69 | 235 | 0.0 | 1.0 | 0.00 | 0.00 | 0.00 | 74 | 1016.4 |
| 20260505004039 | 69 | 348 | 0.0 | 5.0 | 0.00 | 0.00 | 0.00 | 74 | 1016.4 |
| 20260505003538 | 69 | 115 | 0.0 | 5.0 | 0.00 | 0.00 | 0.00 | 74 | 1016.4 |
| 20260505003041 | 69 | 276 | 0.0 | 2.0 | 0.00 | 0.00 | 0.00 | 74 | 1016.4 |
| 20260505002538 | 69 | 333 | 0.0 | 2.0 | 0.00 | 0.00 | 0.00 | 73 | 1016.4 |
| 20260505002039 | 70 | 356 | 0.0 | 2.0 | 0.00 | 0.00 | 0.00 | 73 | 1016.3 |
| 20260505001538 | 70 | 316 | 0.0 | 2.0 | 0.00 | 0.00 | 0.00 | 72 | 1016.3 |
| 20260505001037 | 70 | 159 | 0.0 | 2.0 | 0.00 | 0.00 | 0.00 | 71 | 1016.3 |
| 20260505000537 | 70 | 156 | 0.0 | 3.0 | 0.00 | 0.00 | 0.00 | 71 | 1016.2 |
| 20260505000044 | 71 | 233 | 1.0 | 3.0 | 0.00 | 0.00 | 0.00 | 71 | 1016.1 |
| 20260504235534 | 71 | 135 | 0.0 | 3.0 | 0.00 | 0.00 | 0.00 | 70 | 1016.1 |
| 20260504235033 | 71 | 143 | 0.0 | 4.0 | 0.00 | 0.00 | 0.00 | 70 | 1016.0 |
| 20260504234535 | 71 | 210 | 0.0 | 5.0 | 0.00 | 0.00 | 0.00 | 69 | 1016.0 |
| 20260504234031 | 72 | 11 | 0.0 | 6.0 | 0.00 | 0.00 | 0.00 | 69 | 1015.8 |
| 20260504233530 | 72 | 129 | 1.0 | 8.0 | 0.00 | 0.00 | 0.00 | 68 | 1015.8 |
| 20260504233030 | 72 | 102 | 1.0 | 8.0 | 0.00 | 0.00 | 0.00 | 67 | 1015.8 |
| 20260504232532 | 73 | 276 | 1.0 | 12.0 | 0.00 | 0.00 | 0.00 | 67 | 1015.8 |
| 20260504232029 | 73 | 204 | 1.0 | 12.0 | 0.00 | 0.00 | 0.00 | 66 | 1015.8 |
| 20260504231530 | 74 | 13 | 1.0 | 4.0 | 0.00 | 0.00 | 0.00 | 65 | 1015.7 |
| 20260504231029 | 75 | 190 | 0.0 | 4.0 | 0.00 | 0.00 | 0.00 | 64 | 1015.5 |
| 20260504230534 | 75 | 300 | 0.0 | 3.0 | 0.00 | 0.00 | 0.00 | 63 | 1015.5 |
| 20260504230025 | 76 | 93 | 0.0 | 3.0 | 0.00 | 0.00 | 0.00 | 63 | 1015.5 |
| 20260504225526 | 75 | 80 | 0.0 | 5.0 | 0.00 | 0.00 | 0.00 | 64 | 1015.6 |
| 20260504225030 | 75 | 96 | 1.0 | 7.0 | 0.00 | 0.00 | 0.00 | 64 | 1015.6 |
| 20260504224524 | 75 | 62 | 1.0 | 7.0 | 0.00 | 0.00 | 0.00 | 64 | 1015.6 |
| 20260504224023 | 75 | 105 | 1.0 | 5.0 | 0.00 | 0.00 | 0.00 | 64 | 1015.6 |
| 20260504223524 | 75 | 252 | 0.0 | 6.0 | 0.00 | 0.00 | 0.00 | 64 | 1015.6 |
| 20260504223022 | 76 | 341 | 1.0 | 6.0 | 0.00 | 0.00 | 0.00 | 63 | 1015.7 |
| 20260504222521 | 76 | 18 | 1.0 | 4.0 | 0.00 | 0.00 | 0.00 | 63 | 1015.6 |
| 20260504222019 | 76 | 89 | 0.0 | 5.0 | 0.00 | 0.00 | 0.00 | 64 | 1015.8 |
| 20260504221520 | 76 | 98 | 0.0 | 5.0 | 0.00 | 0.00 | 0.00 | 62 | 1015.9 |
| 20260504221020 | 77 | 286 | 1.0 | 4.0 | 0.00 | 0.00 | 0.00 | 63 | 1015.9 |
| 20260504220520 | 77 | 75 | 0.0 | 5.0 | 0.00 | 0.00 | 0.00 | 61 | 1015.8 |
| 20260504220018 | 78 | 99 | 1.0 | 5.0 | 0.00 | 0.00 | 0.00 | 59 | 1015.8 |
| 20260504215515 | 78 | 266 | 0.0 | 4.0 | 0.00 | 0.00 | 0.00 | 60 | 1015.8 |
| 20260504215016 | 78 | 250 | 0.0 | 5.0 | 0.00 | 0.00 | 0.00 | 60 | 1015.6 |
| 20260504214514 | 78 | 244 | 2.0 | 7.0 | 0.00 | 0.00 | 0.00 | 58 | 1015.7 |
| 20260504214020 | 79 | 326 | 1.0 | 7.0 | 0.00 | 0.00 | 0.00 | 57 | 1015.5 |
| 20260504213512 | 79 | 134 | 0.0 | 4.0 | 0.00 | 0.00 | 0.00 | 58 | 1015.8 |
| 20260504213017 | 79 | 304 | 0.0 | 4.0 | 0.00 | 0.00 | 0.00 | 58 | 1015.7 |
| 20260504212511 | 79 | 129 | 0.0 | 5.0 | 0.00 | 0.00 | 0.00 | 60 | 1015.8 |
| 20260504212009 | 78 | 158 | 1.0 | 5.0 | 0.00 | 0.00 | 0.00 | 58 | 1016.1 |
| 20260504211507 | 78 | 145 | 0.0 | 4.0 | 0.00 | 0.00 | 0.00 | 58 | 1016.0 |
| 20260504211007 | 78 | 157 | 0.0 | 6.0 | 0.00 | 0.00 | 0.00 | 57 | 1015.9 |
| 20260504210507 | 78 | 239 | 0.0 | 4.0 | 0.00 | 0.00 | 0.00 | 57 | 1016.0 |
| 20260504210011 | 80 | 108 | 1.0 | 4.0 | 0.00 | 0.00 | 0.00 | 54 | 1016.1 |
| 20260504205509 | 79 | 243 | 0.0 | 7.0 | 0.00 | 0.00 | 0.00 | 56 | 1016.1 |
| 20260504205002 | 79 | 207 | 1.0 | 5.0 | 0.00 | 0.00 | 0.00 | 55 | 1016.2 |
| 20260504204504 | 81 | 100 | 0.0 | 5.0 | 0.00 | 0.00 | 0.00 | 54 | 1016.1 |
| 20260504204003 | 80 | 145 | 1.0 | 5.0 | 0.00 | 0.00 | 0.00 | 56 | 1016.2 |
| 20260504203506 | 79 | 117 | 0.0 | 5.0 | 0.00 | 0.00 | 0.00 | 54 | 1016.1 |
| 20260504203110 | 80 | 296 | 0.0 | 5.0 | 0.00 | 0.00 | 0.00 | 51 | 1016.1 |
| 20260504202600 | 81 | 309 | 1.0 | 5.0 | 0.00 | 0.00 | 0.00 | 52 | 1016.2 |
| 20260504202001 | 80 | 65 | 1.0 | 7.0 | 0.00 | 0.00 | 0.00 | 53 | 1016.2 |
| 20260504201600 | 81 | 319 | 2.0 | 7.0 | 0.00 | 0.00 | 0.00 | 52 | 1016.2 |
| 20260504201506 | 81 | 136 | 1.0 | 7.0 | 0.00 | 0.00 | 0.00 | 54 | 1016.1 |
| 20260504201102 | 81 | 161 | 1.0 | 4.0 | 0.00 | 0.00 | 0.00 | 52 | 1016.2 |
| 20260504200612 | 81 | 30 | 1.0 | 4.0 | 0.00 | 0.00 | 0.00 | 51 | 1016.2 |
| 20260504200058 | 80 | 129 | 1.0 | 7.0 | 0.00 | 0.00 | 0.00 | 52 | 1016.2 |
| 20260504195556 | 81 | 157 | 2.0 | 7.0 | 0.00 | 0.00 | 0.00 | 52 | 1016.4 |
| 20260504195053 | 80 | 18 | 1.0 | 6.0 | 0.00 | 0.00 | 0.00 | 50 | 1016.4 |
| 20260504194601 | 81 | 83 | 1.0 | 5.0 | 0.00 | 0.00 | 0.00 | 51 | 1016.3 |
| 20260504194051 | 82 | 83 | 0.0 | 5.0 | 0.00 | 0.00 | 0.00 | 51 | 1016.6 |
| 20260504193550 | 82 | 225 | 2.0 | 6.0 | 0.00 | 0.00 | 0.00 | 50 | 1016.5 |
| 20260504193049 | 82 | 268 | 1.0 | 7.0 | 0.00 | 0.00 | 0.00 | 50 | 1016.6 |
| 20260504192043 | 83 | 110 | 2.0 | 6.0 | 0.00 | 0.00 | 0.00 | 49 | 1016.7 |
| 20260504191545 | 84 | 241 | 1.0 | 7.0 | 0.00 | 0.00 | 0.00 | 47 | 1016.5 |
| 20260504191042 | 84 | 278 | 1.0 | 7.0 | 0.00 | 0.00 | 0.00 | 49 | 1016.7 |
| 20260504190542 | 83 | 122 | 0.0 | 5.0 | 0.00 | 0.00 | 0.00 | 49 | 1016.7 |
| 20260504190042 | 84 | 109 | 1.0 | 4.0 | 0.00 | 0.00 | 0.00 | 47 | 1016.7 |
| 20260504185534 | 83 | 311 | 0.0 | 6.0 | 0.00 | 0.00 | 0.00 | 48 | 1016.9 |
| 20260504185029 | 83 | 119 | 0.0 | 6.0 | 0.00 | 0.00 | 0.00 | 50 | 1016.9 |
| 20260504184629 | 83 | 229 | 2.0 | 6.0 | 0.00 | 0.00 | 0.00 | 47 | 1017.0 |
| 20260504184029 | 82 | 323 | 1.0 | 6.0 | 0.00 | 0.00 | 0.00 | 47 | 1017.0 |
| 20260504183525 | 82 | 279 | 2.0 | 5.0 | 0.00 | 0.00 | 0.00 | 45 | 1017.0 |
| 20260504183033 | 82 | 101 | 1.0 | 4.0 | 0.00 | 0.00 | 0.00 | 44 | 1017.1 |
| 20260504182531 | 83 | 281 | 1.0 | 4.0 | 0.00 | 0.00 | 0.00 | 42 | 1017.1 |
| 20260504182026 | 83 | 91 | 1.0 | 6.0 | 0.00 | 0.00 | 0.00 | 44 | 1017.2 |
| 20260504181525 | 82 | 323 | 1.0 | 6.0 | 0.00 | 0.00 | 0.00 | 43 | 1017.2 |
| 20260504181024 | 81 | 333 | 1.0 | 6.0 | 0.00 | 0.00 | 0.00 | 45 | 1017.2 |
| 20260504180523 | 83 | 290 | 1.0 | 6.0 | 0.00 | 0.00 | 0.00 | 46 | 1017.1 |
| 20260504180020 | 83 | 160 | 0.0 | 6.0 | 0.00 | 0.00 | 0.00 | 46 | 1017.2 |
| 20260504175520 | 82 | 202 | 0.0 | 4.0 | 0.00 | 0.00 | 0.00 | 45 | 1017.1 |
| 20260504175018 | 82 | 91 | 0.0 | 9.0 | 0.00 | 0.00 | 0.00 | 42 | 1017.1 |
| 20260504174014 | 83 | 149 | 0.0 | 6.0 | 0.00 | 0.00 | 0.00 | 46 | 1017.3 |
| 20260504173511 | 83 | 317 | 1.0 | 6.0 | 0.00 | 0.00 | 0.00 | 46 | 1017.4 |
| 20260504173009 | 82 | 44 | 0.0 | 5.0 | 0.00 | 0.00 | 0.00 | 46 | 1017.4 |
| 20260504172507 | 82 | 219 | 0.0 | 5.0 | 0.00 | 0.00 | 0.00 | 45 | 1017.4 |
| 20260504172007 | 82 | 316 | 1.0 | 6.0 | 0.00 | 0.00 | 0.00 | 44 | 1017.4 |
| 20260504171508 | 82 | 88 | 0.0 | 4.0 | 0.00 | 0.00 | 0.00 | 46 | 1017.4 |
| 20260504171005 | 82 | 284 | 1.0 | 5.0 | 0.00 | 0.00 | 0.00 | 42 | 1017.4 |
| 20260504170505 | 81 | 75 | 1.0 | 5.0 | 0.00 | 0.00 | 0.00 | 44 | 1017.5 |
| 20260504151036 | 79 | 239 | 1.0 | 4.0 | 0.00 | 0.00 | 0.00 | 48 | 1018.3 |
| 20260504150537 | 78 | 204 | 0.0 | 3.0 | 0.00 | 0.00 | 0.00 | 47 | 1018.3 |
| 20260504141051 | 74 | 333 | 0.0 | 3.0 | 0.00 | 0.00 | 0.00 | 55 | 1018.4 |
| 20260504140552 | 73 | 331 | 0.0 | 2.0 | 0.00 | 0.00 | 0.00 | 56 | 1018.5 |
| 20260504130504 | 66 | 15 | 0.0 | 2.0 | 0.00 | 0.00 | 0.00 | 77 | 1018.4 |
| 20260504110553 | 54 | 359 | 0.0 | 0.0 | 0.00 | 0.00 | 0.00 | 93 | 1017.5 |
| 20260504100529 | 54 | 359 | 0.0 | 0.0 | 0.00 | 0.00 | 0.00 | 93 | 1017.2 |
| 20260504081507 | 55 | 359 | 0.0 | 0.0 | 0.00 | 0.00 | 0.00 | 92 | 1017.4 |
| 20260504081007 | 55 | 359 | 0.0 | 0.0 | 0.00 | 0.00 | 0.00 | 92 | 1017.4 |
| 20260504080505 | 55 | 359 | 0.0 | 0.0 | 0.00 | 0.00 | 0.00 | 92 | 1017.4 |
| 20260504050530 | 57 | 359 | 0.0 | 0.0 | 0.00 | 0.00 | 0.00 | 90 | 1018.4 |
| 20260504045126 | 57 | 359 | 0.0 | 0.0 | 0.00 | 0.00 | 0.00 | 89 | 1018.6 |
| 20260504044035 | 57 | 359 | 0.0 | 0.0 | 0.00 | 0.00 | 0.00 | 89 | 1018.5 |
| 20260504043523 | 57 | 359 | 0.0 | 0.0 | 0.00 | 0.00 | 0.00 | 89 | 1018.5 |
| 20260504043024 | 57 | 359 | 0.0 | 0.0 | 0.00 | 0.00 | 0.00 | 89 | 1018.5 |
| 20260504042519 | 57 | 359 | 0.0 | 0.0 | 0.00 | 0.00 | 0.00 | 89 | 1018.5 |
| 20260504042018 | 57 | 359 | 0.0 | 0.0 | 0.00 | 0.00 | 0.00 | 89 | 1018.5 |
| 20260504041515 | 57 | 359 | 0.0 | 0.0 | 0.00 | 0.00 | 0.00 | 88 | 1018.4 |
| 20260504041014 | 57 | 359 | 0.0 | 0.0 | 0.00 | 0.00 | 0.00 | 88 | 1018.5 |
| 20260504040512 | 57 | 359 | 0.0 | 0.0 | 0.00 | 0.00 | 0.00 | 88 | 1018.5 |
| 20260504040008 | 57 | 359 | 0.0 | 0.0 | 0.00 | 0.00 | 0.00 | 88 | 1018.5 |
| 20260504035512 | 58 | 359 | 0.0 | 0.0 | 0.00 | 0.00 | 0.00 | 88 | 1018.5 |
| 20260504035013 | 58 | 359 | 0.0 | 0.0 | 0.00 | 0.00 | 0.00 | 88 | 1018.5 |
| 20260504034508 | 58 | 359 | 0.0 | 0.0 | 0.00 | 0.00 | 0.00 | 87 | 1018.5 |
| 20260504034014 | 58 | 359 | 0.0 | 0.0 | 0.00 | 0.00 | 0.00 | 87 | 1018.5 |
| 20260504033607 | 58 | 359 | 0.0 | 0.0 | 0.00 | 0.00 | 0.00 | 87 | 1018.5 |
| 20260504033003 | 58 | 359 | 0.0 | 0.0 | 0.00 | 0.00 | 0.00 | 87 | 1018.6 |
| 20260504032603 | 58 | 359 | 0.0 | 0.0 | 0.00 | 0.00 | 0.00 | 87 | 1018.6 |
| 20260504032007 | 58 | 359 | 0.0 | 0.0 | 0.00 | 0.00 | 0.00 | 86 | 1018.6 |
| 20260504031501 | 59 | 359 | 0.0 | 0.0 | 0.00 | 0.00 | 0.00 | 86 | 1018.6 |
| 20260504031001 | 59 | 359 | 0.0 | 0.0 | 0.00 | 0.00 | 0.00 | 86 | 1018.6 |
| 20260504030503 | 59 | 359 | 0.0 | 0.0 | 0.00 | 0.00 | 0.00 | 86 | 1018.6 |
| 20260504030100 | 59 | 359 | 0.0 | 0.0 | 0.00 | 0.00 | 0.00 | 85 | 1018.5 |
| 20260504025559 | 59 | 359 | 0.0 | 0.0 | 0.00 | 0.00 | 0.00 | 85 | 1018.6 |
| 20260504025501 | 59 | 359 | 0.0 | 0.0 | 0.00 | 0.00 | 0.00 | 85 | 1018.6 |
| 20260504025059 | 60 | 359 | 0.0 | 0.0 | 0.00 | 0.00 | 0.00 | 85 | 1018.4 |
| 20260504024601 | 60 | 359 | 0.0 | 0.0 | 0.00 | 0.00 | 0.00 | 85 | 1018.4 |
| 20260504024502 | 60 | 359 | 0.0 | 0.0 | 0.00 | 0.00 | 0.00 | 85 | 1018.4 |
| 20260504024102 | 60 | 359 | 0.0 | 0.0 | 0.00 | 0.00 | 0.00 | 84 | 1018.4 |
| 20260504023055 | 60 | 359 | 0.0 | 0.0 | 0.00 | 0.00 | 0.00 | 84 | 1018.4 |